Flag for Cayman Islands Weather past 2 weeks in George Town, Cayman Islands

Now
77 °F

Scattered clouds.


Feels Like: 79 °F
Forecast: N/A
Wind: 21 mph from East

Location: Owen Roberts Airportgrand Cayman

Current Time: Jan 29, 2015 at 5:46:41 PM

Latest Report: Jan 29, 2015 at 5:00 PM


Visibility: N/A

Pressure: 30.01 "Hg

Humidity: 65%

Dew point: 64 °F

Location of George TownLocation

Historic Weather in George Town — Graph

°F

George Town temperature yesterday

Maximum temperature yesterday: 79 °F (at 2:00 PM)
Minimum temperature yesterday: 73 °F (at 5:50 AM)
Average temperature yesterday: 76 °F

Past Weeks' High & Low Weather Summary

 TemperatureHumidityPressure
High84 °F (Jan 16, 2:00 PM)100% (Jan 16, 5:54 AM)30.09 "Hg (Jan 16, 5:54 AM)
Low72 °F (Jan 16, 6:52 AM)54% (Jan 27, 2:00 PM)29.92 "Hg (Jan 20, 3:00 PM)
Average79 °F79%30.01 "Hg
* Reported Jan 14 5:00 PM — Jan 29 5:00 PM, George Town, Weather by CustomWeather, © 2014

Note: Actual official high and low records may vary slightly from our data, if they occured in-between our weather recording intervals... More about our weather records

Advertising

George Town weather history for previous 24 hours

 ConditionsComfort  
Time TempWeatherWind HumidityBarometerVisibility
5:00 PM
Jan 29
77 °FScattered clouds.21 mph65%30.01 "HgN/A
4:00 PM79 °FPartly sunny.16 mph61%30.01 "HgN/A
3:00 PM79 °FPartly sunny.18 mph61%30.01 "HgN/A
2:00 PM79 °FPartly sunny.18 mph58%30.04 "HgN/A
1:00 PM79 °FPartly sunny.13 mph61%30.07 "HgN/A
12:00 PM77 °FPassing clouds.13 mph61%30.09 "HgN/A
11:00 AM75 °FScattered clouds.15 mph61%30.09 "HgN/A
10:00 AM75 °FPartly sunny.15 mph61%30.09 "HgN/A
9:00 AM75 °FScattered clouds.16 mph65%30.09 "HgN/A
8:00 AM75 °FPassing clouds.13 mph74%30.04 "HgN/A
7:00 AM73 °FPassing clouds.13 mph74%30.04 "HgN/A
6:00 AM73 °FPassing clouds.14 mph74%30.01 "HgN/A
10:00 PM
Jan 28
75 °FPassing clouds.No wind61%30.07 "HgN/A
9:00 PM73 °FPassing clouds.9 mph65%30.04 "HgN/A
8:00 PM73 °FPassing clouds.10 mph65%30.04 "HgN/A
7:00 PM75 °FPassing clouds.9 mph61%30.04 "HgN/A
6:00 PM75 °FScattered clouds.10 mph61%30.01 "HgN/A
5:00 PM75 °FScattered clouds.9 mph65%30.01 "HgN/A
Weather by CustomWeather, © 2014

See weather overviewHow to use our weather pages